When you browse on this site, cookies collect data to enhance your experience and personalize the content and advertising you see.
Visit our Privacy Policy to learn more. By continuing to use the site, you agree to this use of cookies and data.
  • In Portugal
  • List of Countries
  • For 7 days
  • Water Temperature
  • Satellite Maps
  • Weather Map
  • Weather Widgets
  • user-avatar
    Login

    Hourly Weather Donets'k

    Today, 13 December, Thursday

    Time Temperature Precipitation Wind Pressure Humidity
    00:00 -1°C° 0 mm 4 mps 742 mmHg 85%
    01:00 -2°C° 0 mm 4 mps 742 mmHg 86%
    02:00 -2°C° 0 mm 4 mps 743 mmHg 87%
    03:00 -1°C° 0 mm 3 mps 743 mmHg 90%
    04:00 -1°C° 0 mm 3 mps 743 mmHg 89%
    05:00 -1°C° 0 mm 3 mps 744 mmHg 88%
    06:00 -1°C° 0 mm 3 mps 744 mmHg 87%
    07:00 -1°C° 0 mm 3 mps 744 mmHg 87%
    08:00 -1°C° 0 mm 3 mps 745 mmHg 87%
    09:00 -1°C° 0 mm 3 mps 745 mmHg 87%
    10:00 -1°C° 0 mm 3 mps 746 mmHg 84%
    11:00 0°C° 0 mm 3 mps 746 mmHg 82%
    12:00 0°C° 0 mm 4 mps 747 mmHg 79%
    13:00 0°C° 0 mm 4 mps 747 mmHg 78%
    14:00 +1°C° 0 mm 3 mps 747 mmHg 77%
    15:00 +2°C° 0 mm 3 mps 747 mmHg 76%
    16:00 +1°C° 0 mm 3 mps 748 mmHg 78%
    17:00 +2°C° 0 mm 2 mps 748 mmHg 79%
    18:00 +1°C° 0 mm 2 mps 748 mmHg 81%
    19:00 +1°C° 0 mm 2 mps 748 mmHg 82%
    20:00 +1°C° 0 mm 2 mps 749 mmHg 82%
    21:00 +1°C° 0 mm 2 mps 749 mmHg 83%
    22:00 -1°C° 0 mm 2 mps 749 mmHg 84%
    23:00 -1°C° 0 mm 2 mps 749 mmHg 85%

    Tomorrow, 14 December, Friday

    Time Temperature Precipitation Wind Pressure Humidity
    00:00 -1°C° 0 mm 2 mps 749 mmHg 86%
    01:00 -1°C° 0 mm 2 mps 749 mmHg 87%
    02:00 -1°C° 0 mm 2 mps 749 mmHg 87%
    03:00 -1°C° 0 mm 2 mps 749 mmHg 88%
    04:00 -1°C° 0 mm 2 mps 750 mmHg 89%
    05:00 -1°C° 0 mm 2 mps 750 mmHg 90%
    06:00 -2°C° 0 mm 2 mps 750 mmHg 90%
    07:00 -1°C° 0 mm 2 mps 750 mmHg 91%
    08:00 -1°C° 0 mm 2 mps 750 mmHg 91%
    09:00 +1°C° 0 mm 1 mps 751 mmHg 92%
    10:00 +2°C° 0 mm 1 mps 751 mmHg 88%
    11:00 +3°C° 0 mm 1 mps 751 mmHg 84%
    12:00 +3°C° 0 mm 1 mps 751 mmHg 80%
    13:00 +4°C° 0 mm 1 mps 751 mmHg 80%
    14:00 +4°C° 0 mm 1 mps 751 mmHg 80%
    15:00 +3°C° 0 mm 0 mps 752 mmHg 79%
    16:00 +2°C° 0 mm 0 mps 752 mmHg 81%
    17:00 +1°C° 0 mm 0 mps 752 mmHg 83%
    18:00 0°C° 0 mm 0 mps 752 mmHg 85%
    19:00 0°C° 0 mm 0 mps 752 mmHg 86%
    20:00 0°C° 0 mm 0 mps 752 mmHg 86%
    21:00 0°C° 0 mm 0 mps 753 mmHg 86%
    22:00 0°C° 0 mm 0 mps 753 mmHg 86%
    23:00 +1°C° 0 mm 1 mps 753 mmHg 87%

    Day after tomorrow, 15 December, Saturday

    Time Temperature Precipitation Wind Pressure Humidity
    00:00 +1°C° 0 mm 1 mps 753 mmHg 87%
    01:00 +1°C° 0 mm 1 mps 753 mmHg 87%
    02:00 +1°C° 0 mm 1 mps 754 mmHg 87%
    03:00 0°C° 0 mm 0 mps 754 mmHg 87%
    04:00 0°C° 0 mm 0 mps 754 mmHg 87%
    05:00 -1°C° 0 mm 0 mps 754 mmHg 87%
    06:00 -1°C° 0 mm 0 mps 754 mmHg 87%
    07:00 -1°C° 0 mm 0 mps 754 mmHg 87%
    08:00 -1°C° 0 mm 0 mps 754 mmHg 87%
    09:00 -1°C° 0 mm 0 mps 755 mmHg 87%
    10:00 0°C° 0 mm 0 mps 755 mmHg 82%
    11:00 +1°C° 0 mm 0 mps 755 mmHg 78%
    12:00 +2°C° 0 mm 0 mps 755 mmHg 74%
    13:00 +2°C° 0 mm 0 mps 755 mmHg 75%
    14:00 +2°C° 0 mm 0 mps 755 mmHg 75%
    15:00 +2°C° 0 mm 0 mps 756 mmHg 76%
    16:00 +2°C° 0 mm 1 mps 756 mmHg 80%
    17:00 +1°C° 0 mm 1 mps 756 mmHg 83%
    18:00 +1°C° 0 mm 1 mps 756 mmHg 86%
    19:00 -2°C° 0 mm 2 mps 756 mmHg 87%
    20:00 -2°C° 0 mm 2 mps 756 mmHg 88%
    21:00 -2°C° 0 mm 2 mps 757 mmHg 90%
    22:00 -3°C° 0 mm 2 mps 757 mmHg 90%
    23:00 -3°C° 0 mm 2 mps 757 mmHg 90%

    16 December, Sunday

    Time Temperature Precipitation Wind Pressure Humidity
    00:00 -3°C° 0 mm 2 mps 757 mmHg 90%
    01:00 -4°C° 0 mm 3 mps 757 mmHg 89%
    02:00 -4°C° 0 mm 3 mps 757 mmHg 88%
    03:00 -4°C° 0 mm 3 mps 757 mmHg 87%
    04:00 -5°C° 0 mm 3 mps 757 mmHg 87%
    05:00 -5°C° 0 mm 3 mps 757 mmHg 86%
    06:00 -5°C° 0 mm 3 mps 757 mmHg 86%
    07:00 -5°C° 0 mm 4 mps 757 mmHg 86%
    08:00 -5°C° 0 mm 4 mps 757 mmHg 86%
    09:00 -5°C° 0 mm 4 mps 757 mmHg 85%
    10:00 -4°C° 0 mm 4 mps 757 mmHg 83%
    11:00 -5°C° 0 mm 5 mps 757 mmHg 80%
    12:00 -4°C° 0 mm 5 mps 757 mmHg 77%
    13:00 -4°C° 0 mm 5 mps 756 mmHg 77%
    14:00 -4°C° 0 mm 5 mps 756 mmHg 77%
    15:00 -4°C° 0 mm 5 mps 756 mmHg 76%
    16:00 -4°C° 0 mm 5 mps 756 mmHg 78%
    17:00 -5°C° 0 mm 5 mps 756 mmHg 80%
    18:00 -5°C° 0 mm 5 mps 756 mmHg 82%
    19:00 -5°C° 0 mm 6 mps 756 mmHg 82%
    20:00 -6°C° 0 mm 6 mps 756 mmHg 83%
    21:00 -6°C° 0 mm 6 mps 756 mmHg 83%
    22:00 -6°C° 0 mm 6 mps 756 mmHg 83%
    23:00 -6°C° 0 mm 6 mps 755 mmHg 82%

    17 December, Monday

    Time Temperature Precipitation Wind Pressure Humidity
    00:00 -6°C° 0 mm 6 mps 755 mmHg 82%
    01:00 -6°C° 0 mm 6 mps 755 mmHg 81%
    02:00 -6°C° 0 mm 6 mps 755 mmHg 80%
    03:00 -8°C° 0 mm 6 mps 755 mmHg 79%
    04:00 -8°C° 0 mm 6 mps 754 mmHg 77%
    05:00 -8°C° 0 mm 6 mps 754 mmHg 74%
    06:00 -8°C° 0 mm 6 mps 754 mmHg 72%
    07:00 -8°C° 0 mm 6 mps 754 mmHg 70%
    08:00 -8°C° 0 mm 6 mps 754 mmHg 67%
    09:00 -8°C° 0 mm 6 mps 754 mmHg 64%
    10:00 -8°C° 0 mm 7 mps 754 mmHg 61%
    11:00 -7°C° 0 mm 7 mps 754 mmHg 58%
    12:00 -6°C° 0 mm 7 mps 754 mmHg 55%
    13:00 -6°C° 0 mm 7 mps 754 mmHg 55%
    14:00 -6°C° 0 mm 7 mps 753 mmHg 55%
    15:00 -6°C° 0 mm 7 mps 753 mmHg 55%
    16:00 -7°C° 0 mm 7 mps 753 mmHg 56%
    17:00 -7°C° 0 mm 7 mps 754 mmHg 58%
    18:00 -8°C° 0 mm 7 mps 754 mmHg 60%
    19:00 -8°C° 0 mm 7 mps 754 mmHg 62%
    20:00 -8°C° 0 mm 7 mps 754 mmHg 64%
    21:00 -9°C° 0 mm 6 mps 754 mmHg 66%
    22:00 -9°C° 0 mm 6 mps 754 mmHg 68%
    23:00 -9°C° 0 mm 6 mps 754 mmHg 70%

    18 December, Tuesday

    Time Temperature Precipitation Wind Pressure Humidity
    00:00 -9°C° 0 mm 6 mps 754 mmHg 73%
    01:00 -9°C° 0 mm 6 mps 754 mmHg 74%
    02:00 -10°C° 0 mm 6 mps 754 mmHg 75%
    03:00 -10°C° 0 mm 6 mps 754 mmHg 77%
    04:00 -10°C° 0 mm 6 mps 754 mmHg 78%
    05:00 -10°C° 0 mm 6 mps 754 mmHg 79%
    06:00 -10°C° 0 mm 6 mps 754 mmHg 80%
    07:00 -10°C° 0 mm 6 mps 754 mmHg 80%
    08:00 -10°C° 0 mm 6 mps 754 mmHg 80%
    09:00 -9°C° 0 mm 6 mps 754 mmHg 79%
    10:00 -9°C° 0 mm 6 mps 754 mmHg 78%
    11:00 -9°C° 0 mm 6 mps 754 mmHg 76%
    12:00 -8°C° 0 mm 6 mps 754 mmHg 74%
    13:00 -8°C° 0 mm 6 mps 754 mmHg 74%
    14:00 -8°C° 0 mm 6 mps 754 mmHg 74%
    15:00 -6°C° 0 mm 6 mps 753 mmHg 74%
    16:00 -8°C° 0 mm 6 mps 753 mmHg 75%
    17:00 -8°C° 0 mm 6 mps 754 mmHg 77%
    18:00 -8°C° 0 mm 6 mps 754 mmHg 78%
    19:00 -8°C° 0 mm 6 mps 754 mmHg 79%
    20:00 -8°C° 0 mm 6 mps 754 mmHg 79%
    21:00 -6°C° 0 mm 6 mps 754 mmHg 80%
    22:00 -6°C° 0 mm 6 mps 753 mmHg 81%
    23:00 -6°C° 0 mm 6 mps 753 mmHg 81%
    Show more